Time,TemperatureF,DewpointF,PressureIn,WindDirection,WindDirectionDegrees,WindSpeedMPH,WindSpeedGustMPH,Humidity,HourlyPrecipIn,Conditions,Clouds,dailyrainin,SoftwareType,DateUTC
2015-04-18 00:04:00,35.4,33.8,30.03,WSW,250,1.0,10.0,94,0.00,,,0.00,Wunderground v.1.15,2015-04-18 06:04:00,
2015-04-18 00:10:00,35.6,34.0,30.02,WSW,250,1.0,1.0,94,0.00,,,0.00,Wunderground v.1.15,2015-04-18 06:10:00,
2015-04-18 00:16:00,35.7,34.1,30.02,WSW,250,1.0,10.0,94,0.00,,,0.00,Wunderground v.1.15,2015-04-18 06:16:00,
2015-04-18 00:22:00,35.8,34.2,30.02,WSW,250,1.0,10.0,94,0.00,,,0.00,Wunderground v.1.15,2015-04-18 06:22:00,
2015-04-18 00:28:00,36.0,34.7,30.02,WSW,250,1.0,10.0,95,0.00,,,0.00,Wunderground v.1.15,2015-04-18 06:28:00,
2015-04-18 00:34:00,36.1,34.8,30.02,WSW,250,0.0,10.0,95,0.00,,,0.00,Wunderground v.1.15,2015-04-18 06:34:00,
2015-04-18 00:40:00,36.6,35.3,30.02,West,277,2.0,10.0,95,0.00,,,0.00,Wunderground v.1.15,2015-04-18 06:40:00,
2015-04-18 00:46:00,36.8,35.5,30.02,WNW,286,3.0,10.0,95,0.00,,,0.00,Wunderground v.1.15,2015-04-18 06:46:00,
2015-04-18 00:52:00,36.9,35.6,30.02,WNW,291,2.0,10.0,95,0.00,,,0.00,Wunderground v.1.15,2015-04-18 06:52:00,
2015-04-18 00:58:00,36.8,35.5,30.02,WNW,297,3.0,10.0,95,0.00,,,0.00,Wunderground v.1.15,2015-04-18 06:58:00,
2015-04-18 01:04:00,36.9,35.6,30.02,WNW,303,3.0,5.0,95,0.00,,,0.00,Wunderground v.1.15,2015-04-18 07:04:00,
2015-04-18 01:10:00,36.8,35.5,30.02,WNW,303,3.0,4.0,95,0.00,,,0.00,Wunderground v.1.15,2015-04-18 07:10:00,
2015-04-18 01:16:00,36.6,35.3,30.02,NNW,344,4.0,5.0,95,0.00,,,0.00,Wunderground v.1.15,2015-04-18 07:16:00,
2015-04-18 01:22:00,36.1,34.5,30.01,North,360,5.0,6.0,94,0.00,,,0.00,Wunderground v.1.15,2015-04-18 07:22:00,
2015-04-18 01:28:00,35.9,34.3,30.02,North,5,4.0,6.0,94,0.00,,,0.00,Wunderground v.1.15,2015-04-18 07:28:00,
2015-04-18 01:34:00,35.6,34.0,30.01,North,5,3.0,3.0,94,0.00,,,0.00,Wunderground v.1.15,2015-04-18 07:34:00,
2015-04-18 01:40:00,35.2,33.6,30.01,North,5,3.0,3.0,94,0.00,,,0.00,Wunderground v.1.15,2015-04-18 07:40:00,
2015-04-18 01:46:00,35.0,33.4,30.01,North,5,3.0,4.0,94,0.00,,,0.00,Wunderground v.1.15,2015-04-18 07:46:00,
2015-04-18 01:52:00,34.7,33.2,30.00,North,5,2.0,2.0,94,0.00,,,0.00,Wunderground v.1.15,2015-04-18 07:52:00,
2015-04-18 01:58:00,34.5,33.0,30.00,North,5,1.0,2.0,94,0.00,,,0.00,Wunderground v.1.15,2015-04-18 07:58:00,
2015-04-18 02:04:00,34.3,32.8,30.00,North,5,1.0,7.0,94,0.00,,,0.00,Wunderground v.1.15,2015-04-18 08:04:00,
2015-04-18 02:10:00,33.9,32.4,29.99,North,5,0.0,7.0,94,0.00,,,0.00,Wunderground v.1.15,2015-04-18 08:10:00,
2015-04-18 02:16:00,33.6,32.1,29.99,North,5,0.0,7.0,94,0.00,,,0.00,Wunderground v.1.15,2015-04-18 08:16:00,
2015-04-18 02:22:00,33.5,32.2,29.98,North,5,0.0,7.0,95,0.00,,,0.00,Wunderground v.1.15,2015-04-18 08:22:00,
2015-04-18 02:28:00,33.5,32.2,29.98,North,5,0.0,7.0,95,0.00,,,0.00,Wunderground v.1.15,2015-04-18 08:28:00,
2015-04-18 02:34:00,33.4,32.1,29.98,North,5,0.0,7.0,95,0.00,,,0.00,Wunderground v.1.15,2015-04-18 08:34:00,
2015-04-18 02:40:00,33.2,31.7,29.98,North,5,0.0,7.0,94,0.00,,,0.00,Wunderground v.1.15,2015-04-18 08:40:00,
2015-04-18 02:46:00,33.1,31.8,29.98,North,5,0.0,7.0,95,0.00,,,0.00,Wunderground v.1.15,2015-04-18 08:46:00,
2015-04-18 02:52:00,33.2,31.9,29.98,North,5,0.0,7.0,95,0.00,,,0.00,Wunderground v.1.15,2015-04-18 08:52:00,
2015-04-18 02:58:00,33.2,31.9,29.98,North,5,0.0,7.0,95,0.00,,,0.00,Wunderground v.1.15,2015-04-18 08:58:00,
2015-04-18 03:04:00,33.2,31.9,29.97,North,5,0.0,7.0,95,0.00,,,0.00,Wunderground v.1.15,2015-04-18 09:04:00,
2015-04-18 03:10:00,33.4,32.1,29.97,North,5,1.0,7.0,95,0.00,,,0.00,Wunderground v.1.15,2015-04-18 09:10:00,
2015-04-18 03:22:00,33.8,32.8,29.97,North,5,2.0,7.0,96,0.00,,,0.00,Wunderground v.1.15,2015-04-18 09:22:00,
2015-04-18 03:28:00,33.9,32.9,29.97,North,5,0.0,7.0,96,0.00,,,0.00,Wunderground v.1.15,2015-04-18 09:28:00,
2015-04-18 03:34:00,34.0,32.7,29.97,North,5,0.0,7.0,95,0.00,,,0.00,Wunderground v.1.15,2015-04-18 09:34:00,
2015-04-18 03:40:00,34.1,32.8,29.97,North,5,0.0,7.0,95,0.00,,,0.00,Wunderground v.1.15,2015-04-18 09:40:00,
2015-04-18 03:46:00,34.3,33.3,29.97,North,5,1.0,7.0,96,0.00,,,0.00,Wunderground v.1.15,2015-04-18 09:46:00,
2015-04-18 03:52:00,34.3,33.0,29.97,North,5,0.0,7.0,95,0.00,,,0.00,Wunderground v.1.15,2015-04-18 09:52:00,
2015-04-18 03:58:00,34.5,33.2,29.97,North,5,1.0,7.0,95,0.00,,,0.00,Wunderground v.1.15,2015-04-18 09:58:00,
2015-04-18 04:04:00,34.7,33.4,29.97,North,5,1.0,7.0,95,0.00,,,0.00,Wunderground v.1.15,2015-04-18 10:04:00,
2015-04-18 04:10:00,34.7,33.4,29.97,North,5,1.0,1.0,95,0.00,,,0.00,Wunderground v.1.15,2015-04-18 10:10:00,
2015-04-18 04:16:00,34.7,33.4,29.96,North,5,0.0,7.0,95,0.00,,,0.00,Wunderground v.1.15,2015-04-18 10:16:00,
2015-04-18 04:22:00,34.7,33.4,29.96,North,5,1.0,7.0,95,0.00,,,0.00,Wunderground v.1.15,2015-04-18 10:22:00,
2015-04-18 04:28:00,34.7,33.4,29.96,North,5,0.0,7.0,95,0.00,,,0.00,Wunderground v.1.15,2015-04-18 10:28:00,
2015-04-18 04:34:00,34.8,33.5,29.96,North,5,0.0,7.0,95,0.00,,,0.00,Wunderground v.1.15,2015-04-18 10:34:00,
2015-04-18 04:40:00,34.8,33.5,29.96,North,5,0.0,7.0,95,0.00,,,0.00,Wunderground v.1.15,2015-04-18 10:40:00,
2015-04-18 04:46:00,34.8,33.5,29.96,North,5,0.0,7.0,95,0.00,,,0.00,Wunderground v.1.15,2015-04-18 10:46:00,
2015-04-18 04:52:00,34.9,33.6,29.95,North,5,0.0,7.0,95,0.00,,,0.00,Wunderground v.1.15,2015-04-18 10:52:00,
2015-04-18 04:58:00,35.0,33.7,29.96,North,5,0.0,7.0,95,0.00,,,0.00,Wunderground v.1.15,2015-04-18 10:58:00,
2015-04-18 05:04:00,35.0,33.7,29.96,North,5,0.0,7.0,95,0.00,,,0.00,Wunderground v.1.15,2015-04-18 11:04:00,
2015-04-18 05:10:00,35.1,33.8,29.95,North,5,1.0,1.0,95,0.00,,,0.00,Wunderground v.1.15,2015-04-18 11:10:00,
2015-04-18 05:16:00,35.2,33.9,29.95,North,5,1.0,7.0,95,0.00,,,0.00,Wunderground v.1.15,2015-04-18 11:16:00,
2015-04-18 05:22:00,35.1,33.8,29.96,North,5,1.0,7.0,95,0.00,,,0.00,Wunderground v.1.15,2015-04-18 11:22:00,
2015-04-18 05:28:00,35.1,33.8,29.96,North,5,0.0,7.0,95,0.00,,,0.00,Wunderground v.1.15,2015-04-18 11:28:00,
2015-04-18 05:34:00,35.1,33.8,29.96,North,5,1.0,7.0,95,0.00,,,0.00,Wunderground v.1.15,2015-04-18 11:34:00,
2015-04-18 05:40:00,35.1,33.8,29.96,North,5,1.0,1.0,95,0.00,,,0.00,Wunderground v.1.15,2015-04-18 11:40:00,
2015-04-18 05:46:00,35.1,33.8,29.96,North,5,0.0,7.0,95,0.00,,,0.00,Wunderground v.1.15,2015-04-18 11:46:00,
2015-04-18 05:52:00,35.1,33.5,29.96,North,5,0.0,7.0,94,0.00,,,0.00,Wunderground v.1.15,2015-04-18 11:52:00,
2015-04-18 05:58:00,35.1,33.5,29.95,North,355,1.0,7.0,94,0.00,,,0.00,Wunderground v.1.15,2015-04-18 11:58:00,
2015-04-18 06:04:00,35.0,33.4,29.95,North,355,1.0,7.0,94,0.00,,,0.00,Wunderground v.1.15,2015-04-18 12:04:00,
2015-04-18 06:10:00,35.0,33.4,29.95,NNW,346,1.0,7.0,94,0.00,,,0.00,Wunderground v.1.15,2015-04-18 12:10:00,
2015-04-18 06:16:00,35.0,33.4,29.94,NNW,346,2.0,7.0,94,0.00,,,0.00,Wunderground v.1.15,2015-04-18 12:16:00,
2015-04-18 06:22:00,35.0,33.4,29.94,NNW,346,2.0,7.0,94,0.00,,,0.00,Wunderground v.1.15,2015-04-18 12:22:00,
2015-04-18 06:28:00,35.0,33.4,29.94,NNW,346,2.0,7.0,94,0.00,,,0.00,Wunderground v.1.15,2015-04-18 12:28:00,
2015-04-18 06:34:00,34.9,33.3,29.94,NNW,346,1.0,7.0,94,0.00,,,0.00,Wunderground v.1.15,2015-04-18 12:34:00,
2015-04-18 06:40:00,34.9,33.3,29.94,NNW,346,1.0,7.0,94,0.00,,,0.00,Wunderground v.1.15,2015-04-18 12:40:00,
2015-04-18 06:46:00,34.9,33.6,29.93,NNW,346,2.0,7.0,95,0.00,,,0.00,Wunderground v.1.15,2015-04-18 12:46:00,
2015-04-18 06:52:00,34.9,33.6,29.93,NNW,346,3.0,7.0,95,0.00,,,0.00,Wunderground v.1.15,2015-04-18 12:52:00,
2015-04-18 06:58:00,34.9,33.6,29.93,NNW,346,2.0,7.0,95,0.00,,,0.00,Wunderground v.1.15,2015-04-18 12:58:00,
2015-04-18 07:04:00,34.9,33.6,29.94,NNW,346,2.0,7.0,95,0.00,,,0.00,Wunderground v.1.15,2015-04-18 13:04:00,
2015-04-18 07:10:00,34.9,33.6,29.94,NNW,346,2.0,7.0,95,0.00,,,0.00,Wunderground v.1.15,2015-04-18 13:10:00,
2015-04-18 07:16:00,34.9,33.6,29.94,NNW,346,2.0,7.0,95,0.00,,,0.00,Wunderground v.1.15,2015-04-18 13:16:00,
2015-04-18 07:22:00,34.9,33.6,29.93,NNW,346,1.0,7.0,95,0.00,,,0.00,Wunderground v.1.15,2015-04-18 13:22:00,
2015-04-18 07:28:00,35.0,33.7,29.93,NNW,346,0.0,7.0,95,0.00,,,0.00,Wunderground v.1.15,2015-04-18 13:28:00,
2015-04-18 07:34:00,35.0,33.7,29.93,NNW,346,0.0,7.0,95,0.00,,,0.00,Wunderground v.1.15,2015-04-18 13:34:00,
2015-04-18 07:40:00,35.1,33.8,29.93,NNW,346,0.0,7.0,95,0.00,,,0.00,Wunderground v.1.15,2015-04-18 13:40:00,
2015-04-18 07:46:00,35.1,33.8,29.93,NNW,346,0.0,7.0,95,0.00,,,0.00,Wunderground v.1.15,2015-04-18 13:46:00,
2015-04-18 07:52:00,35.2,33.9,29.93,NNW,346,0.0,7.0,95,0.00,,,0.00,Wunderground v.1.15,2015-04-18 13:52:00,
2015-04-18 07:58:00,35.2,33.9,29.93,NNW,346,0.0,7.0,95,0.00,,,0.00,Wunderground v.1.15,2015-04-18 13:58:00,
2015-04-18 08:04:00,35.3,34.0,29.93,NNW,346,0.0,7.0,95,0.00,,,0.00,Wunderground v.1.15,2015-04-18 14:04:00,
2015-04-18 08:10:00,35.6,34.3,29.93,NNW,346,0.0,7.0,95,0.00,,,0.00,Wunderground v.1.15,2015-04-18 14:10:00,
2015-04-18 08:16:00,35.7,34.4,29.93,NNW,346,0.0,7.0,95,0.00,,,0.00,Wunderground v.1.15,2015-04-18 14:16:00,
2015-04-18 08:22:00,35.7,34.1,29.93,NNW,346,0.0,7.0,94,0.00,,,0.00,Wunderground v.1.15,2015-04-18 14:22:00,
2015-04-18 08:28:00,35.9,34.6,29.93,NNW,346,0.0,7.0,95,0.00,,,0.00,Wunderground v.1.15,2015-04-18 14:28:00,
2015-04-18 08:34:00,35.9,34.3,29.93,NNW,346,1.0,7.0,94,0.00,,,0.00,Wunderground v.1.15,2015-04-18 14:34:00,
2015-04-18 08:40:00,36.0,34.4,29.93,NNW,346,1.0,7.0,94,0.00,,,0.00,Wunderground v.1.15,2015-04-18 14:40:00,
2015-04-18 08:46:00,35.9,34.3,29.93,NNW,346,1.0,7.0,94,0.00,,,0.00,Wunderground v.1.15,2015-04-18 14:46:00,
2015-04-18 08:52:00,36.1,34.5,29.93,NNW,346,1.0,7.0,94,0.00,,,0.00,Wunderground v.1.15,2015-04-18 14:52:00,
2015-04-18 08:58:00,36.3,34.7,29.93,NNW,346,1.0,7.0,94,0.00,,,0.00,Wunderground v.1.15,2015-04-18 14:58:00,
2015-04-18 09:04:00,36.6,35.0,29.93,NNW,346,1.0,7.0,94,0.00,,,0.00,Wunderground v.1.15,2015-04-18 15:04:00,
2015-04-18 09:10:00,37.0,35.2,29.92,NNW,346,1.0,7.0,93,0.00,,,0.00,Wunderground v.1.15,2015-04-18 15:10:00,
2015-04-18 09:16:00,37.3,35.2,29.92,NNW,346,1.0,7.0,92,0.00,,,0.00,Wunderground v.1.15,2015-04-18 15:16:00,
2015-04-18 09:22:00,37.6,35.5,29.92,NNW,346,1.0,7.0,92,0.00,,,0.00,Wunderground v.1.15,2015-04-18 15:22:00,
2015-04-18 09:28:00,38.1,35.7,29.92,NNW,346,1.0,7.0,91,0.00,,,0.00,Wunderground v.1.15,2015-04-18 15:28:00,
2015-04-18 09:34:00,38.7,36.0,29.92,NNW,346,1.0,7.0,90,0.00,,,0.00,Wunderground v.1.15,2015-04-18 15:34:00,
2015-04-18 09:40:00,39.1,36.4,29.92,NNW,346,1.0,7.0,90,0.00,,,0.00,Wunderground v.1.15,2015-04-18 15:40:00,
2015-04-18 09:46:00,39.0,36.0,29.92,NNW,346,2.0,7.0,89,0.00,,,0.00,Wunderground v.1.15,2015-04-18 15:46:00,
2015-04-18 09:52:00,38.9,36.2,29.92,NNW,346,2.0,7.0,90,0.00,,,0.00,Wunderground v.1.15,2015-04-18 15:52:00,
2015-04-18 09:58:00,38.7,35.5,29.92,NNW,346,2.0,7.0,88,0.00,,,0.00,Wunderground v.1.15,2015-04-18 15:58:00,
2015-04-18 10:04:00,39.1,35.6,29.92,NNW,346,2.0,7.0,87,0.00,,,0.00,Wunderground v.1.15,2015-04-18 16:04:00,
2015-04-18 10:10:00,39.4,35.9,29.92,NNW,346,1.0,7.0,87,0.00,,,0.00,Wunderground v.1.15,2015-04-18 16:10:00,
2015-04-18 10:16:00,39.8,35.4,29.92,NNW,346,2.0,7.0,84,0.00,,,0.00,Wunderground v.1.15,2015-04-18 16:16:00,
2015-04-18 10:22:00,40.3,35.2,29.92,NNW,346,2.0,7.0,82,0.00,,,0.00,Wunderground v.1.15,2015-04-18 16:22:00,
2015-04-18 10:28:00,41.1,35.4,29.92,NNW,346,2.0,7.0,80,0.00,,,0.00,Wunderground v.1.15,2015-04-18 16:28:00,
2015-04-18 10:34:00,41.2,34.9,29.92,NNW,344,4.0,8.0,78,0.00,,,0.00,Wunderground v.1.15,2015-04-18 16:34:00,
2015-04-18 10:40:00,41.1,34.1,29.92,NNW,345,4.0,7.0,76,0.00,,,0.00,Wunderground v.1.15,2015-04-18 16:40:00,
2015-04-18 10:46:00,41.0,34.3,29.92,NNW,344,2.0,7.0,77,0.00,,,0.00,Wunderground v.1.15,2015-04-18 16:46:00,
2015-04-18 10:52:00,41.7,35.3,29.92,NNW,344,1.0,7.0,78,0.00,,,0.00,Wunderground v.1.15,2015-04-18 16:52:00,
2015-04-18 10:58:00,42.1,34.7,29.91,NNW,345,2.0,7.0,75,0.00,,,0.00,Wunderground v.1.15,2015-04-18 16:58:00,
2015-04-18 11:04:00,42.2,35.8,29.91,NNE,15,3.0,8.0,78,0.00,,,0.00,Wunderground v.1.15,2015-04-18 17:04:00,
2015-04-18 11:10:00,42.0,35.0,29.91,NNE,15,4.0,4.0,76,0.00,,,0.00,Wunderground v.1.15,2015-04-18 17:10:00,
2015-04-18 11:16:00,42.3,34.6,29.91,North,9,3.0,7.0,74,0.00,,,0.00,Wunderground v.1.15,2015-04-18 17:16:00,
2015-04-18 11:22:00,42.8,34.0,29.91,North,351,3.0,8.0,71,0.00,,,0.00,Wunderground v.1.15,2015-04-18 17:22:00,
2015-04-18 11:28:00,43.0,34.6,29.91,North,355,4.0,8.0,72,0.00,,,0.00,Wunderground v.1.15,2015-04-18 17:28:00,
2015-04-18 11:34:00,42.8,34.0,29.91,North,355,4.0,7.0,71,0.00,,,0.00,Wunderground v.1.15,2015-04-18 17:34:00,
2015-04-18 11:40:00,43.2,34.8,29.90,North,350,5.0,7.0,72,0.00,,,0.00,Wunderground v.1.15,2015-04-18 17:40:00,